Regional Weather Roundup
Issued by NWS Wilmington, NC

Current Version | Previous Version | Text Only | Print | Product List | Glossary On
Versions: 1 2 3 4 5 6 7 8 9 10 11 12 13 14 15 16 17 18 19 20 21 22 23 24 25 26 27
000
ASUS42 KILM 100012
RWRILM
RWRILM
REGIONAL HOURLY WEATHER ROUNDUP
NATIONAL WEATHER SERVICE WILMINGTON NC
700 PM EST FRI DEC 09 2016

NOTE: "FAIR" INDICATES FEW OR NO CLOUDS BELOW 12,000 FEET WITH NO
SIGNIFICANT WEATHER AND/OR OBSTRUCTIONS TO VISIBILITY.

...............WFO WILMINGTON COUNTY WARNING AREA...............

......COASTAL NC AND SC COUNTIES......

CITY           SKY/WX    TMP DP  RH WIND       PRES   REMARKS
WILMINGTON     CLEAR     36  23  59 N5        30.43R WCI  32
N MYRTLE BEACH CLEAR     36  28  73 N3        30.43R
MYRTLE BEACH   CLEAR     39  21  48 NW6       30.45R WCI  35

......INLAND NC AND SC COUNTIES.......

CITY           SKY/WX    TMP DP  RH WIND       PRES   REMARKS
LUMBERTON      CLEAR     36  23  59 CALM      30.44R
ELIZABETHTOWN  CLEAR     35  23  62 CALM      30.43R
WHITEVILLE     CLEAR     36  22  58 CALM      30.43R
FLORENCE       CLEAR     37  21  52 N5        30.45R WCI  33
DARLINGTON     NOT AVBL
KINGSTREE      FAIR      32  28  86 CALM      30.45R
HARTSVILLE     FAIR      34  19  55 N3        30.44R
BENNETTSVILLE  FAIR      36  27  69 NW3       30.44R
CONWAY         FAIR      32  28  86 CALM      30.45R
GEORGETOWN     NOT AVBL
MARION         FAIR      34  25  69 CALM      30.45R

....................REST OF NORTH CAROLINA......................

.........EASTERN NC.........

CITY           SKY/WX    TMP DP  RH WIND       PRES   REMARKS
CAPE HATTERAS  CLEAR     39  21  48 VRB5      30.40R
JACKSONVILLE   NOT AVBL
MOREHEAD CITY  CLEAR     35  21  56 N6        30.42R WCI  30
KENANSVILLE    CLEAR     32  21  64 N3        30.43R
NEW BERN       CLEAR     34  20  56 NW3       30.43R
ELIZABETH CITY CLEAR     33  17  51 NW8       30.41R WCI  26

.........CENTRAL NC.........

CITY           SKY/WX    TMP DP  RH WIND       PRES   REMARKS
RALEIGH DURHAM CLEAR     34  13  41 CALM      30.44R
ROCKY MOUNT    CLEAR     30  20  66 NW3       30.44R
ROANOKE RAPIDS NOT AVBL
FAYETTEVILLE   CLEAR     34  18  52 N5        30.43R WCI  30
HOFFMAN        CLEAR     31  23  70 CALM      30.43R

.........WESTERN NC.........

CITY           SKY/WX    TMP DP  RH WIND       PRES   REMARKS
CHARLOTTE      CLEAR     35  12  38 N8        30.43R WCI  29
GREENSBORO     CLEAR     32  13  45 N3        30.41S
HICKORY        NOT AVBL
BOONE          NOT AVBL
ASHEVILLE      NOT AVBL

.....................REST OF SOUTH CAROLINA.....................

.........EASTERN SC.........

CITY           SKY/WX    TMP DP  RH WIND       PRES   REMARKS
CHARLESTON     CLEAR     37  26  64 N5        30.44R WCI  33
BEAUFORT MCAS  CLEAR     41  26  55 NE6       30.44R
HILTON HEAD    CLEAR     45  21  39 N8        30.43R

.........CENTRAL SC.........

CITY           SKY/WX    TMP DP  RH WIND       PRES   REMARKS
COLUMBIA       CLEAR     35  25  66 CALM      30.43R
ORANGEBURG     CLEAR     36  27  69 NE3       30.44R
SUMTER SHAW    CLEAR     35  20  55 NE6       30.42R WCI  30

.........WESTERN SC.........

CITY           SKY/WX    TMP DP  RH WIND       PRES   REMARKS
GREENVILLE     NOT AVBL
ROCK HILL      CLEAR     33  14  45 CALM      30.43R
ANDERSON       CLEAR     37  21  52 SE3       30.40S
CLEMSON        NOT AVBL
GREENWOOD      CLEAR     33  18  53 CALM      30.43S


...................COASTAL AND OFFSHORE REPORTS..................

................LOCAL PIERS AND NC RESERVE................


STATION/POSITION TIME  SKY/WX   TEMP    WIND        PRES    VSBY
                                AIR SEA DIR/SP/G
                 (UTC)          (F)     (DEG/KT/KT) (MB)    (MI)
JOHNY MRCER PIER 2348            39 60  340/  6/  8 1029.2R
NC RESRV MASNBRO 2245            38      10/  1     1028.0
OCEAN CREST PIER NOT AVBL
SPRINGMAID  PIER NOT AVBL


................COASTAL AND OFFSHORE BUOYS................


STATION/POSITION TIME  SKY/WX   TEMP    WIND        PRES    VSBY
                                AIR SEA DIR/SP/G
                 (UTC)          (F)     (DEG/KT/KT) (MB)    (MI)
DIMNDSHOAL 41025 2350            42 77  350/ 17/ 23 1029.0R
WVE H/P(F/S)=  5/10 SWL H/P/D(F/S/D)=  5/ 70/10

CAPE LOOKOUT     2300            40     340/ 14/ 17 1029.0R
ONSLOW BAY 41036 NOT AVBL
ONSLOW BAY 41064 2308            45 69  350/ 14/ 21 1029.0R
ONSLOW BAY 41159 2343               69                N/A
WVE H/P(F/S)=  3/ 3

5SE WRITBC 41038 2308            41 61   10/ 16/ 23 1029.2R
MASNBO INL 41110 2329               61                N/A
WVE H/P(F/S)=  2/ 3

WILM HARBR 41108 2356               60                N/A
WVE H/P(F/S)=  2/ 3

27SE WRITB 41037 2308            45 69  340/ 14/ 23 1028.7R
FRYING PAN 41013 2350            47 72  340/ 16/ 21 1029.5R
WVE H/P(F/S)=  3/ 6 SWL H/P/D(F/S/D)=  2/ 80/ 8

SUNST NRSH 41024 2308            44 59  350/ 10/ 14 1029.4R
CAPRS NRSH 41029 2308            47 60  360/ 12/ 16 1029.9R
EDISTO     41004 2250            50 72  350/ 14/ 17 1028.2
WVE H/P(F/S)=  4/ 6 SWL H/P/D(F/S/D)=  2/ 60/ 7



..........OFFSHORE BUOYS BEYOND 100 NM OFFSHORE...........
.....IN A TRIANGLE---HAT TO BERMUDA TO BAHAMAS TO HAT.....


STATION/POSITION TIME  SKY/WX   TEMP    WIND        PRES    VSBY
                                AIR SEA DIR/SP/G
                 (UTC)          (F)     (DEG/KT/KT) (MB)    (MI)
150E HAT   41001 NOT AVBL
W BERMUDA  41048 2250            66 73  300/ 17/ 21 1020.8
WVE H/P(F/S)=  7/ 9 SWL H/P/D(F/S/D)=  5/330/ 9

ATLANTIC S 41049 2250            74 76  360/  2/  2 1019.9
WVE H/P(F/S)=  5/ 9 SWL H/P/D(F/S/D)=  5/330/ 9

E BAHAMAS  41046 2350            76 79  310/  4/  6 1020.4R
WVE H/P(F/S)=  4/ 9 SWL H/P/D(F/S/D)=  3/ 9

NE BAHAMAS 41047 2350            75 78   10/ 14/ 17 1021.0R
WVE H/P(F/S)=  3/ 8 SWL H/P/D(F/S/D)=  2/ 20/ 8

120E CANVRL41010 NOT AVBL

END




USA.gov is the U.S. government's official web portal to all federal, state and local government web resources and services.